User: anonymous
Location: Unspecified
(0.0000°N, 0.0000°E)
Time: 08:44:47
(UTC+02:00)
Language:

Ariane H10 - Orbit

View from above orbital plane
View from above orbital plane
View from above satellite
View from above satellite

Ground track
Ground track

The orbit data is extracted from the following two-line orbital elements,

1 21727U 91067B   14242.69070684  .00000049  00000-0  23247-3 0  2824
2 21727 004.5424 028.0845 7183658 043.2931 170.1112 02.31396238154254
Epoch (UTC): 30 August 2014 16:34:37
Eccentricity: 0.7183658
inclination: 4.5424°
perigee height: 422 km
apogee height: 35112 km
right ascension of ascending node: 28.0845°
argument of perigee: 43.2931°
revolutions per day: 2.31396238
mean anomaly at epoch: 170.1112°
orbit number at epoch: 15425

The dashed part of the orbit path shows where the satellite is in the earth's shadow,  

DLR